"startDT [UTC]","vpos","CH4 [ppm]","stdev(CH4) [ppm]","CO2 [ppm]","stdev(CO2) [ppm]","H2O_reported [%]","stdev(H2O_reported)","CavityPressure [torr]","CavityTemp [C]","OutletValve","CH4_dry [ppm]","CO2_dry [ppm]","DasTemp [C]","EtalonTemp [C]","WarmBoxTemp [C]","MPVPosition","T_ECpre [C]","T_EC1 [C]","T_EC2 [C]","p_inlet [hPa]","p_in [hPa]","p_out [hPa]","T_inlet [C]","RH_inlet [%]","dwpt_inlet [C]","T_vent [C]","RH_vent [%]","dwpt_vent [C]","flow_vent [l min-1]","flow_inlet [l min-1]","dwpt_sample [C]","T_room [C]"
2015-10-06 00:00:00,0.0,1.94347,0.00114,396.797,0.021,0.3378,0.0013,139.999,45.000,31800.92827,1.95007,398.424,36.566,45.068,45.000,0.00,0.09,-272.74,-272.81,-7,525,-944,21.4,10.0,-11.5,21.6,10.0,-11.3,5.73,1.85,-5.6,28.1
2015-10-06 00:01:00,0.0,1.94259,0.00131,396.808,0.046,0.3383,0.0021,140.000,45.000,31800.90281,1.94913,398.437,36.567,45.068,45.000,0.00,0.09,-272.74,-272.80,-8,525,-944,21.3,10.0,-11.5,21.6,10.0,-11.3,5.73,1.83,-5.6,28.1
2015-10-06 00:02:00,0.0,1.94219,0.00136,396.782,0.041,0.3377,0.0023,139.999,45.000,31801.64925,1.94878,398.410,36.593,45.068,45.000,0.00,0.09,-272.74,-272.80,-9,525,-944,21.4,10.0,-11.5,21.6,10.1,-11.2,5.73,2.13,-5.6,28.1
2015-10-06 00:03:00,0.0,1.94325,0.00181,396.786,0.048,0.3380,0.0016,140.002,45.000,31804.15031,1.94972,398.415,36.575,45.068,45.000,0.00,0.09,-272.74,-272.81,-8,525,-944,21.4,10.0,-11.5,21.6,10.1,-11.2,5.73,1.87,-5.6,28.0
2015-10-06 00:04:00,0.0,1.94184,0.00151,396.741,0.045,0.3392,0.0017,139.998,45.000,31804.40985,1.94835,398.373,36.587,45.068,45.000,0.00,0.09,-272.74,-272.80,-7,525,-944,21.4,10.0,-11.5,21.6,10.1,-11.2,5.73,1.81,-5.6,28.0
2015-10-06 00:05:00,0.0,1.94269,0.00097,396.736,0.038,0.3390,0.0019,139.999,45.000,31803.20869,1.94921,398.371,36.582,45.068,45.000,0.00,0.09,-272.74,-272.80,-8,525,-944,21.4,10.1,-11.4,21.6,10.1,-11.1,5.73,2.13,-5.6,28.0
2015-10-06 00:06:00,0.0,1.94176,0.00230,396.761,0.057,0.3393,0.0014,140.000,45.000,31803.63835,1.94846,398.396,36.564,45.068,45.000,0.00,0.09,-272.74,-272.81,-9,525,-944,21.4,10.1,-11.4,21.6,10.1,-11.2,5.73,1.90,-5.6,28.0
2015-10-06 00:07:00,0.0,1.93849,0.00087,396.672,0.051,0.3380,0.0016,140.000,45.000,31804.48626,1.94496,398.299,36.561,45.068,45.000,0.00,0.09,-272.74,-272.80,-8,525,-944,21.4,10.0,-11.5,21.7,10.1,-11.2,5.73,1.80,-5.6,28.0
2015-10-06 00:08:00,0.0,1.93990,0.00099,396.734,0.037,0.3380,0.0019,140.003,45.000,31807.38867,1.94636,398.360,36.564,45.068,45.000,0.00,0.09,-272.74,-272.79,-7,525,-944,21.4,10.0,-11.5,21.6,10.1,-11.2,5.73,2.12,-5.6,28.1
2015-10-06 00:09:00,0.0,1.94204,0.00070,396.760,0.035,0.3396,0.0021,140.001,45.000,31805.22079,1.94848,398.396,36.563,45.068,45.000,0.00,0.09,-272.74,-272.80,-9,525,-945,21.4,10.0,-11.5,21.6,10.1,-11.2,5.73,1.92,-5.6,28.1
2015-10-06 00:10:00,0.0,1.93977,0.00109,396.708,0.035,0.3394,0.0015,139.999,45.000,31802.81225,1.94642,398.343,36.563,45.068,45.000,0.00,0.09,-272.74,-272.81,-9,525,-944,21.4,10.0,-11.5,21.7,10.1,-11.1,5.73,1.78,-5.6,28.1
2015-10-06 00:11:00,0.0,1.93818,0.00058,396.664,0.038,0.3386,0.0014,140.001,45.000,31806.20796,1.94474,398.296,36.561,45.068,45.000,0.00,0.09,-272.74,-272.79,-7,526,-944,21.3,10.1,-11.4,21.6,10.1,-11.2,5.73,2.11,-5.6,28.2
2015-10-06 00:12:00,0.0,1.93938,0.00130,396.691,0.041,0.3383,0.0019,140.002,45.000,31806.13799,1.94590,398.319,36.562,45.068,45.000,0.00,0.09,-272.74,-272.80,-8,525,-944,21.4,10.0,-11.5,21.6,10.1,-11.2,5.73,1.94,-5.6,28.2
2015-10-06 00:13:00,0.0,1.94046,0.00084,396.721,0.034,0.3393,0.0017,139.997,45.000,31805.07325,1.94694,398.356,36.551,45.068,45.000,0.00,0.09,-272.74,-272.81,-9,525,-945,21.3,10.1,-11.4,21.5,10.1,-11.2,5.73,1.78,-5.6,28.2
2015-10-06 00:14:00,0.0,1.93856,0.00104,396.675,0.021,0.3395,0.0018,139.999,45.000,31803.30572,1.94516,398.310,36.523,45.068,45.000,0.00,0.09,-272.74,-272.80,-8,526,-944,21.3,10.1,-11.4,21.6,10.1,-11.1,5.73,2.11,-5.6,28.1
2015-10-06 00:15:00,0.0,1.94032,0.00067,396.770,0.039,0.3405,0.0017,140.001,45.000,31804.60497,1.94680,398.409,36.549,45.068,45.000,0.00,0.09,-272.74,-272.80,-7,525,-944,21.3,10.1,-11.4,21.6,10.2,-11.1,5.73,1.95,-5.6,28.1
2015-10-06 00:16:00,0.0,1.93939,0.00098,396.705,0.046,0.3404,0.0017,140.002,45.000,31804.92601,1.94601,398.346,36.563,45.068,45.000,0.00,0.09,-272.74,-272.80,-8,525,-944,21.3,10.1,-11.4,21.6,10.2,-11.1,5.73,1.77,-5.6,28.1
2015-10-06 00:17:00,0.0,1.94151,0.00130,396.776,0.047,0.3395,0.0015,140.002,45.000,31802.23834,1.94795,398.410,36.574,45.068,45.000,0.00,0.09,-272.75,-272.80,-9,525,-944,21.3,10.1,-11.4,21.6,10.1,-11.1,5.73,2.08,-5.6,28.0
2015-10-06 00:18:00,0.0,1.94297,0.00053,396.796,0.040,0.3423,0.0016,139.999,45.000,31803.54209,1.94959,398.444,36.586,45.068,45.000,0.00,0.09,-272.74,-272.80,-8,525,-944,21.3,10.2,-11.3,21.6,10.2,-11.1,5.73,1.99,-5.6,28.0
2015-10-06 00:19:00,0.0,1.94142,0.00127,396.756,0.041,0.3435,0.0015,139.999,45.000,31803.00176,1.94816,398.411,36.592,45.067,45.000,0.00,0.09,-272.74,-272.80,-7,525,-944,21.3,10.2,-11.4,21.6,10.3,-11.0,5.73,1.76,-5.6,28.0
2015-10-06 00:20:00,0.0,1.93967,0.00114,396.706,0.038,0.3408,0.0018,139.999,45.000,31802.41543,1.94616,398.348,36.600,45.067,45.000,0.00,0.09,-272.75,-272.80,-8,525,-944,21.3,10.1,-11.4,21.6,10.2,-11.1,5.73,2.07,-5.6,28.0
2015-10-06 00:21:00,0.0,1.94134,0.00086,396.789,0.035,0.3423,0.0020,139.998,45.000,31801.72914,1.94799,398.439,36.593,45.067,45.000,0.00,0.09,-272.74,-272.80,-9,525,-944,21.4,10.1,-11.3,21.6,10.2,-11.1,5.73,2.00,-5.6,28.0
2015-10-06 00:22:00,0.0,1.94045,0.00066,396.753,0.037,0.3425,0.0013,139.998,45.000,31802.14877,1.94708,398.404,36.592,45.068,45.000,0.00,0.09,-272.74,-272.80,-8,525,-945,21.3,10.2,-11.3,21.6,10.2,-11.0,5.73,1.75,-5.6,28.0
2015-10-06 00:23:00,0.0,1.94074,0.00082,396.749,0.029,0.3397,0.0012,140.000,45.000,31801.54322,1.94722,398.384,36.598,45.068,45.000,0.00,0.09,-272.75,-272.80,-8,525,-944,21.4,10.1,-11.4,21.6,10.1,-11.2,5.73,2.05,-5.6,28.0
2015-10-06 00:24:00,0.0,1.93945,0.00078,396.720,0.040,0.3402,0.0017,140.002,45.000,31802.31955,1.94608,398.359,36.572,45.068,45.000,0.00,0.09,-272.74,-272.80,-9,525,-944,21.4,10.1,-11.4,21.6,10.1,-11.2,5.73,2.02,-5.6,28.0
2015-10-06 00:25:00,0.0,1.94040,0.00123,396.738,0.039,0.3399,0.0019,140.000,45.000,31804.45904,1.94682,398.374,36.572,45.068,45.000,0.00,0.09,-272.74,-272.80,-9,525,-944,21.4,10.1,-11.4,21.6,10.2,-11.1,5.73,1.75,-5.6,28.1
2015-10-06 00:26:00,0.0,1.94268,0.00091,396.801,0.043,0.3419,0.0019,140.000,45.000,31803.25911,1.94928,398.449,36.570,45.068,45.000,0.00,0.09,-272.75,-272.80,-7,525,-944,21.4,10.1,-11.3,21.6,10.1,-11.1,5.73,2.06,-5.6,28.1
2015-10-06 00:27:00,0.0,1.94282,0.00112,396.795,0.047,0.3421,0.0024,140.003,45.000,31803.36225,1.94939,398.443,36.568,45.068,45.000,0.00,0.09,-272.74,-272.81,-8,525,-944,21.4,10.1,-11.4,21.6,10.2,-11.1,5.73,2.02,-5.6,28.1
2015-10-06 00:28:00,0.0,1.94186,0.00116,396.814,0.052,0.3417,0.0022,140.000,45.000,31801.62315,1.94860,398.462,36.565,45.068,45.000,0.00,0.09,-272.73,-272.80,-9,525,-944,21.4,10.1,-11.4,21.6,10.2,-11.1,5.73,1.75,-5.6,28.1
2015-10-06 00:29:00,0.0,1.93967,0.00085,396.728,0.043,0.3391,0.0022,140.001,45.000,31803.31226,1.94614,398.361,36.566,45.068,45.000,0.00,0.09,-272.74,-272.80,-8,525,-944,21.3,10.0,-11.5,21.6,10.1,-11.2,5.73,2.04,-5.6,28.1
2015-10-06 00:30:00,0.0,1.93995,0.00069,396.749,0.026,0.3375,0.0014,140.000,45.000,31804.18347,1.94652,398.374,36.565,45.068,45.000,0.00,0.09,-272.74,-272.81,-7,525,-944,21.3,10.0,-11.6,21.6,10.1,-11.2,5.73,2.03,-5.6,28.1
2015-10-06 00:31:00,0.0,1.93959,0.00102,396.731,0.031,0.3382,0.0016,139.998,45.000,31803.11316,1.94610,398.359,36.566,45.068,45.000,0.00,0.09,-272.74,-272.80,-8,525,-944,21.3,10.0,-11.5,21.6,10.1,-11.2,5.73,1.75,-5.6,28.1
2015-10-06 00:32:00,0.0,1.93943,0.00068,396.706,0.032,0.3364,0.0017,140.001,45.000,31804.94103,1.94584,398.327,36.564,45.068,45.000,0.00,0.32,-270.98,-271.97,-9,525,-944,21.3,10.0,-11.6,21.6,10.0,-11.3,5.43,2.06,-11.6,28.0
2015-10-06 00:33:00,0.0,1.94149,0.00059,396.763,0.034,0.3375,0.0018,139.999,45.000,31805.82607,1.94801,398.388,36.561,45.068,45.000,0.00,0.09,-272.75,-272.81,-8,525,-944,21.3,10.0,-11.5,21.6,10.1,-11.2,5.73,2.04,-5.6,28.0
2015-10-06 00:34:00,0.0,1.93969,0.00071,396.712,0.038,0.3386,0.0022,140.002,45.000,31804.95751,1.94625,398.341,36.565,45.068,45.000,0.00,0.09,-272.74,-272.80,-8,525,-944,21.3,10.1,-11.5,21.6,10.1,-11.2,5.73,1.75,-5.6,28.0
2015-10-06 00:35:00,0.0,1.94049,0.00103,396.756,0.038,0.3376,0.0013,140.000,45.000,31803.41171,1.94698,398.383,36.564,45.068,45.000,0.00,0.09,-272.74,-272.79,-9,525,-944,21.3,10.0,-11.5,21.6,10.0,-11.3,5.73,2.01,-5.6,28.0
2015-10-06 00:36:00,0.0,1.94009,0.00099,396.742,0.048,0.3381,0.0014,140.000,45.000,31803.56478,1.94656,398.370,36.564,45.068,45.000,0.00,0.09,-272.74,-272.80,-9,525,-944,21.3,10.0,-11.5,21.6,10.1,-11.2,5.73,2.07,-5.6,28.0
2015-10-06 00:37:00,0.0,1.94142,0.00086,396.792,0.043,0.3374,0.0013,140.000,45.000,31803.43316,1.94790,398.417,36.573,45.068,45.000,0.00,0.09,-272.74,-272.81,-7,525,-945,21.4,10.0,-11.5,21.6,10.1,-11.2,5.73,1.76,-5.6,28.0
2015-10-06 00:38:00,0.0,1.94211,0.00086,396.819,0.046,0.3390,0.0020,140.000,45.000,31803.81265,1.94868,398.453,36.585,45.068,45.000,0.00,0.09,-272.74,-272.79,-8,525,-944,21.4,10.1,-11.4,21.6,10.1,-11.2,5.73,1.99,-5.6,28.0
2015-10-06 00:39:00,0.0,1.94162,0.00062,396.776,0.036,0.3393,0.0019,140.000,45.000,31803.12548,1.94813,398.412,36.576,45.068,45.000,0.00,0.09,-272.74,-272.80,-9,525,-944,21.4,10.1,-11.4,21.6,10.1,-11.2,5.73,2.08,-5.6,28.1
2015-10-06 00:40:00,0.0,1.94306,0.00051,396.798,0.035,0.3397,0.0018,140.001,45.000,31804.36696,1.94957,398.432,36.569,45.068,45.000,0.00,0.09,-272.74,-272.81,-8,525,-944,21.3,10.1,-11.4,21.7,10.1,-11.2,5.73,1.76,-5.6,28.1
2015-10-06 00:41:00,0.0,1.94118,0.00166,396.729,0.076,0.3401,0.0017,139.999,45.000,31804.23843,1.94784,398.367,36.569,45.068,45.000,0.00,0.09,-272.74,-272.80,-7,525,-944,21.3,10.1,-11.4,21.7,10.2,-11.1,5.73,1.97,-5.6,28.2
2015-10-06 00:42:00,0.0,1.94246,0.00103,396.793,0.049,0.3407,0.0015,139.999,45.000,31801.56796,1.94906,398.435,36.564,45.068,45.000,0.00,0.09,-272.74,-272.80,-8,525,-945,21.4,10.1,-11.4,21.6,10.1,-11.2,5.73,2.09,-5.6,28.2
2015-10-06 00:43:00,0.0,1.94099,0.00155,396.734,0.047,0.3408,0.0019,139.998,45.000,31803.02638,1.94752,398.374,36.563,45.068,45.000,0.00,0.09,-272.74,-272.81,-9,525,-944,21.4,10.1,-11.4,21.6,10.2,-11.1,5.73,1.76,-5.6,28.1
2015-10-06 00:44:00,0.0,1.94132,0.00136,396.753,0.047,0.3411,0.0016,139.999,45.000,31804.11311,1.94790,398.397,36.563,45.068,45.000,0.00,0.09,-272.75,-272.80,-8,525,-944,21.3,10.1,-11.4,21.6,10.1,-11.1,5.73,1.98,-5.6,28.1
2015-10-06 00:45:00,0.0,1.94001,0.00131,396.740,0.045,0.3401,0.0020,139.999,45.000,31804.83824,1.94660,398.378,36.563,45.068,45.000,0.00,0.09,-272.74,-272.80,-7,525,-944,21.3,10.1,-11.4,21.6,10.2,-11.1,5.73,2.08,-5.6,28.1
2015-10-06 00:46:00,0.0,1.94109,0.00046,396.755,0.020,0.3414,0.0016,139.999,45.000,31804.90557,1.94768,398.399,36.563,45.068,45.000,0.00,0.09,-272.74,-272.80,-9,525,-944,21.4,10.1,-11.4,21.6,10.1,-11.2,5.73,1.77,-5.6,28.1
2015-10-06 00:47:00,0.0,1.93993,0.00114,396.710,0.037,0.3415,0.0017,139.999,45.000,31804.61038,1.94652,398.354,36.558,45.068,45.000,0.00,0.09,-272.75,-272.80,-9,525,-944,21.3,10.1,-11.4,21.6,10.2,-11.1,5.73,1.96,-5.6,28.0
2015-10-06 00:48:00,0.0,1.94107,0.00080,396.720,0.048,0.3402,0.0019,140.000,45.000,31804.35920,1.94764,398.359,36.527,45.068,45.000,0.00,0.09,-272.74,-272.80,-7,525,-944,21.3,10.1,-11.4,21.6,10.2,-11.1,5.73,2.10,-5.6,28.0
2015-10-06 00:49:00,0.0,1.93982,0.00083,396.703,0.034,0.3406,0.0021,139.996,45.000,31803.72054,1.94641,398.344,36.503,45.068,45.000,0.00,0.09,-272.74,-272.80,-8,525,-944,21.3,10.1,-11.4,21.6,10.1,-11.1,5.73,1.78,-5.6,28.0
2015-10-06 00:50:00,0.0,1.93998,0.00082,396.727,0.035,0.3392,0.0016,140.002,45.000,31804.42974,1.94647,398.360,36.500,45.068,45.000,0.00,0.09,-272.74,-272.80,-9,525,-945,21.3,10.1,-11.5,21.6,10.1,-11.1,5.73,1.92,-5.6,28.0
2015-10-06 00:51:00,0.0,1.93912,0.00085,396.682,0.047,0.3398,0.0018,140.000,45.000,31804.81833,1.94574,398.320,36.500,45.068,45.000,0.00,0.09,-272.74,-272.80,-8,525,-944,21.4,10.1,-11.4,21.6,10.1,-11.2,5.73,2.12,-5.6,28.0
2015-10-06 00:52:00,0.0,1.93874,0.00062,396.634,0.040,0.3398,0.0018,140.003,45.000,31806.34957,1.94529,398.270,36.500,45.068,45.000,0.00,0.09,-272.73,-272.80,-7,525,-945,21.4,10.1,-11.4,21.6,10.1,-11.1,5.73,1.81,-5.7,28.0
2015-10-06 00:53:00,0.0,1.93765,0.00051,396.650,0.034,0.3392,0.0022,140.001,45.000,31805.41278,1.94418,398.283,36.500,45.068,45.000,0.00,0.09,-272.75,-272.80,-8,525,-945,21.4,10.0,-11.5,21.6,10.1,-11.2,5.73,1.88,-5.6,28.0
2015-10-06 00:54:00,0.0,1.93889,0.00054,396.680,0.031,0.3391,0.0023,140.001,45.000,31805.17616,1.94539,398.311,36.500,45.068,45.000,0.00,0.09,-272.75,-272.80,-9,525,-945,21.3,10.1,-11.4,21.6,10.1,-11.2,5.73,2.13,-5.7,28.0
2015-10-06 00:55:00,0.0,1.94073,0.00059,396.712,0.028,0.3414,0.0026,140.002,45.000,31803.41164,1.94726,398.356,36.501,45.068,45.000,0.00,0.09,-272.74,-272.80,-8,526,-945,21.4,10.1,-11.4,21.6,10.2,-11.1,5.73,1.83,-5.6,28.0
2015-10-06 00:56:00,0.0,1.94101,0.00089,396.716,0.029,0.3423,0.0016,140.000,45.000,31804.42043,1.94763,398.366,36.511,45.068,45.000,0.00,0.09,-272.75,-272.80,-7,525,-945,21.3,10.1,-11.3,21.6,10.2,-11.1,5.73,1.85,-5.6,28.1
2015-10-06 00:57:00,0.0,1.94019,0.00089,396.720,0.039,0.3420,0.0018,140.000,45.000,31805.39462,1.94671,398.366,36.513,45.068,45.000,0.00,0.09,-272.75,-272.81,-8,525,-945,21.4,10.1,-11.3,21.6,10.2,-11.0,5.73,2.14,-5.7,28.1
2015-10-06 00:58:00,0.0,1.93914,0.00106,396.670,0.031,0.3417,0.0016,139.999,45.000,31805.52641,1.94582,398.318,36.535,45.068,45.000,0.00,0.09,-272.74,-272.80,-9,525,-945,21.4,10.1,-11.4,21.6,10.2,-11.0,5.73,1.84,-5.7,28.1
2015-10-06 00:59:00,0.0,1.93861,0.00115,396.666,0.040,0.3412,0.0013,140.000,45.000,31806.71218,1.94518,398.308,36.540,45.068,45.000,0.00,0.09,-272.74,-272.79,-8,525,-945,21.3,10.1,-11.4,21.6,10.2,-11.1,5.73,1.84,-5.6,28.1
2015-10-06 01:00:00,0.0,1.93969,0.00078,396.706,0.042,0.3412,0.0019,139.997,45.000,31803.53957,1.94624,398.349,36.540,45.068,45.000,0.00,0.09,-272.75,-272.80,-7,525,-945,21.3,10.1,-11.4,21.6,10.2,-11.1,5.73,2.13,-5.7,28.1
2015-10-06 01:01:00,0.0,1.94098,0.00092,396.727,0.034,0.3418,0.0020,139.999,45.000,31803.71692,1.94753,398.373,36.532,45.068,45.000,0.00,0.09,-272.74,-272.80,-8,525,-945,21.3,10.1,-11.4,21.6,10.2,-11.1,5.73,1.86,-5.7,28.1
2015-10-06 01:02:00,0.0,1.93984,0.00081,396.715,0.044,0.3423,0.0016,139.998,45.000,31802.56998,1.94647,398.363,36.511,45.067,45.000,0.00,0.09,-272.74,-272.79,-9,525,-944,21.3,10.1,-11.4,21.6,10.3,-11.0,5.73,1.82,-5.7,28.1
2015-10-06 01:03:00,0.0,1.94224,0.00088,396.822,0.040,0.3420,0.0018,140.001,45.000,31804.43627,1.94871,398.468,36.504,45.068,45.000,0.00,0.09,-272.75,-272.81,-7,525,-945,21.4,10.2,-11.3,21.6,10.2,-11.0,5.73,2.13,-5.7,28.1
2015-10-06 01:04:00,0.0,1.94079,0.00160,396.752,0.098,0.3437,0.0015,140.003,45.000,31805.70364,1.94758,398.410,36.501,45.068,45.000,0.00,0.09,-272.74,-272.81,-8,525,-945,21.4,10.2,-11.3,21.6,10.3,-11.0,5.73,1.90,-5.7,28.0
2015-10-06 01:05:00,0.0,1.94030,0.00109,396.744,0.045,0.3435,0.0018,139.999,45.000,31804.47376,1.94691,398.399,36.500,45.068,45.000,0.00,0.09,-272.73,-272.80,-9,525,-945,21.3,10.2,-11.3,21.6,10.2,-11.0,5.73,1.79,-5.7,28.0
2015-10-06 01:06:00,0.0,1.94069,0.00079,396.766,0.044,0.3424,0.0011,139.999,45.000,31806.21231,1.94723,398.414,36.498,45.068,45.000,0.00,0.09,-272.74,-272.80,-8,525,-945,21.4,10.2,-11.3,21.6,10.2,-11.0,5.73,2.11,-5.7,28.0
2015-10-06 01:07:00,0.0,1.94043,0.00097,396.761,0.052,0.3443,0.0014,140.001,45.000,31807.53849,1.94711,398.420,36.496,45.068,45.000,0.00,0.09,-272.74,-272.81,-7,525,-944,21.4,10.2,-11.2,21.6,10.3,-11.0,5.73,1.95,-5.7,28.1
2015-10-06 01:08:00,0.0,1.93909,0.00081,396.720,0.044,0.3441,0.0016,140.001,45.000,31808.76027,1.94580,398.379,36.491,45.068,45.000,0.00,0.09,-272.74,-272.79,-8,525,-945,21.4,10.2,-11.2,21.6,10.3,-11.0,5.73,1.76,-5.7,28.0
2015-10-06 01:09:00,0.0,1.93799,0.00070,396.654,0.028,0.3426,0.0020,140.002,45.000,31809.75958,1.94456,398.306,36.483,45.068,45.000,0.00,0.09,-272.74,-272.79,-9,525,-945,21.4,10.2,-11.3,21.6,10.3,-11.0,5.73,2.09,-5.7,28.0
2015-10-06 01:10:00,0.0,1.93897,0.00067,396.664,0.035,0.3427,0.0020,139.999,45.000,31809.34379,1.94552,398.313,36.488,45.068,45.000,0.00,0.09,-272.75,-272.81,-8,525,-945,21.4,10.1,-11.3,21.7,10.2,-11.0,5.73,2.00,-5.7,28.0
2015-10-06 01:11:00,0.0,1.94049,0.00062,396.802,0.044,0.3447,0.0019,139.996,45.000,31807.18107,1.94714,398.460,36.483,45.068,45.000,0.00,0.09,-272.74,-272.80,-7,525,-944,21.4,10.2,-11.2,21.7,10.2,-11.0,5.73,1.76,-5.7,28.0
2015-10-06 01:12:00,0.0,1.93958,0.00058,396.767,0.055,0.3446,0.0018,139.998,45.000,31806.62779,1.94622,398.430,36.451,45.068,45.000,0.00,0.09,-272.74,-272.79,-8,525,-945,21.4,10.2,-11.2,21.7,10.3,-10.9,5.73,2.04,-5.7,28.1
2015-10-06 01:13:00,0.0,1.93930,0.00067,396.708,0.051,0.3438,0.0023,140.000,45.000,31808.34253,1.94594,398.362,36.440,45.068,45.000,0.00,0.09,-272.74,-272.81,-9,525,-945,21.4,10.2,-11.2,21.7,10.2,-11.0,5.73,2.04,-5.7,28.1
2015-10-06 01:14:00,0.0,1.93929,0.00059,396.708,0.036,0.3440,0.0018,139.999,45.000,31807.22157,1.94593,398.367,36.444,45.068,45.000,0.00,0.09,-272.74,-272.80,-8,526,-945,21.4,10.2,-11.3,21.6,10.2,-11.0,5.73,1.75,-5.7,28.1
2015-10-06 01:15:00,0.0,1.93941,0.00064,396.732,0.041,0.3445,0.0017,140.000,45.000,31806.19675,1.94602,398.390,36.453,45.068,45.000,0.00,0.09,-272.75,-272.79,-7,525,-945,21.4,10.2,-11.3,21.7,10.3,-10.9,5.73,2.02,-5.7,28.1
2015-10-06 01:16:00,0.0,1.94000,0.00085,396.748,0.043,0.3449,0.0022,139.999,45.000,31807.48663,1.94661,398.409,36.479,45.068,45.000,0.00,0.09,-272.74,-272.80,-8,525,-945,21.3,10.2,-11.2,21.6,10.3,-10.9,5.73,2.06,-5.7,28.1
2015-10-06 01:17:00,0.0,1.94075,0.00053,396.743,0.037,0.3459,0.0010,139.999,45.000,31806.02525,1.94740,398.409,36.494,45.068,45.000,0.00,0.09,-272.74,-272.80,-9,525,-945,21.3,10.2,-11.2,21.6,10.3,-11.0,5.73,1.75,-5.7,28.1
2015-10-06 01:18:00,0.0,1.94036,0.00132,396.744,0.041,0.3451,0.0018,140.001,45.000,31805.87061,1.94703,398.407,36.500,45.068,45.000,0.00,0.09,-272.74,-272.80,-8,525,-945,21.3,10.3,-11.2,21.6,10.3,-11.0,5.73,1.99,-5.7,28.1
2015-10-06 01:19:00,0.0,1.94170,0.00069,396.784,0.042,0.3459,0.0022,139.999,45.000,31803.39086,1.94832,398.450,36.497,45.068,45.000,0.00,0.09,-272.74,-272.80,-7,525,-945,21.4,10.2,-11.2,21.6,10.3,-11.0,5.73,2.09,-5.7,28.1
2015-10-06 01:20:00,0.0,1.94086,0.00148,396.755,0.049,0.3471,0.0017,140.002,45.000,31805.19034,1.94769,398.429,36.500,45.068,45.000,0.00,0.09,-272.74,-272.81,-8,525,-945,21.3,10.3,-11.2,21.6,10.4,-10.9,5.73,1.77,-5.7,28.0
2015-10-06 01:21:00,0.0,1.94179,0.00132,396.793,0.064,0.3473,0.0019,140.002,45.000,31806.04488,1.94842,398.465,36.503,45.067,45.000,0.00,0.09,-272.75,-272.80,-9,525,-945,21.3,10.3,-11.2,21.6,10.4,-10.9,5.73,1.93,-5.7,28.0
2015-10-06 01:22:00,0.0,1.94100,0.00057,396.772,0.044,0.3462,0.0016,139.998,45.000,31804.99652,1.94766,398.439,36.507,45.068,45.000,0.00,0.09,-272.74,-272.79,-8,525,-945,21.3,10.3,-11.1,21.6,10.4,-10.9,5.73,2.12,-5.7,28.0
2015-10-06 01:23:00,0.0,1.94145,0.00052,396.818,0.042,0.3467,0.0021,139.999,45.000,31805.21887,1.94815,398.489,36.502,45.068,45.000,0.00,0.09,-272.74,-272.81,-8,525,-945,21.3,10.3,-11.1,21.6,10.3,-11.0,5.73,1.80,-5.7,28.0
2015-10-06 01:24:00,0.0,1.94207,0.00080,396.834,0.044,0.3485,0.0021,140.001,45.000,31806.67899,1.94876,398.514,36.505,45.068,45.000,0.00,0.09,-272.75,-272.80,-9,525,-945,21.4,10.4,-11.1,21.6,10.4,-10.8,5.73,1.88,-5.7,28.0
2015-10-06 01:25:00,0.0,1.94110,0.00187,396.725,0.055,0.3500,0.0011,140.000,45.000,31807.06348,1.94788,398.412,36.505,45.068,45.000,0.00,0.09,-272.75,-272.80,-9,525,-945,21.4,10.4,-11.0,21.6,10.4,-10.8,5.73,2.13,-5.7,28.0
2015-10-06 01:26:00,0.0,1.93978,0.00103,396.709,0.041,0.3476,0.0018,139.999,45.000,31806.06071,1.94649,398.383,36.515,45.068,45.000,0.00,0.09,-272.74,-272.80,-7,525,-945,21.4,10.3,-11.1,21.6,10.4,-10.8,5.73,1.84,-5.7,28.0
2015-10-06 01:27:00,0.0,1.94045,0.00087,396.727,0.041,0.3481,0.0020,140.001,45.000,31807.14623,1.94718,398.406,36.510,45.068,45.000,0.00,0.09,-272.75,-272.80,-8,525,-945,21.4,10.3,-11.1,21.7,10.4,-10.8,5.73,1.84,-5.7,28.0
2015-10-06 01:28:00,0.0,1.93943,0.00059,396.705,0.031,0.3475,0.0015,140.000,45.000,31805.21776,1.94614,398.378,36.537,45.068,45.000,0.00,0.09,-272.75,-272.80,-9,525,-945,21.4,10.3,-11.1,21.7,10.4,-10.8,5.73,2.13,-5.7,28.1
2015-10-06 01:29:00,0.0,1.94099,0.00102,396.734,0.032,0.3478,0.0012,140.001,45.000,31805.99905,1.94762,398.410,36.517,45.068,45.000,0.00,0.09,-272.74,-272.80,-9,525,-945,21.4,10.3,-11.1,21.7,10.4,-10.8,5.73,1.88,-5.7,28.1
2015-10-06 01:30:00,0.0,1.94233,0.00078,396.784,0.037,0.3487,0.0017,139.998,45.000,31804.16673,1.94911,398.465,36.507,45.068,45.000,0.00,0.09,-272.74,-272.80,-7,525,-945,21.4,10.4,-11.0,21.6,10.4,-10.8,5.73,1.81,-5.7,28.1
2015-10-06 01:31:00,0.0,1.94064,0.00090,396.728,0.037,0.3497,0.0020,140.000,45.000,31804.97317,1.94734,398.413,36.502,45.068,45.000,0.00,0.09,-272.75,-272.80,-8,525,-945,21.4,10.4,-11.0,21.6,10.5,-10.8,5.73,2.12,-5.7,28.1
2015-10-06 01:32:00,0.0,1.94246,0.00059,396.757,0.035,0.3499,0.0018,139.998,45.000,31803.69699,1.94921,398.444,36.535,45.068,45.000,0.00,0.09,-272.74,-272.81,-9,525,-945,21.4,10.4,-11.0,21.7,10.5,-10.7,5.73,1.92,-5.7,28.1
2015-10-06 01:33:00,0.0,1.94100,0.00114,396.742,0.054,0.3516,0.0015,139.999,45.000,31806.27227,1.94789,398.436,36.560,45.068,45.000,0.00,0.09,-272.74,-272.80,-8,525,-945,21.3,10.4,-11.0,21.6,10.5,-10.7,5.73,1.78,-5.7,28.1
2015-10-06 01:34:00,0.0,1.94159,0.00095,396.739,0.029,0.3510,0.0019,140.001,45.000,31804.58253,1.94824,398.429,36.562,45.068,45.000,0.00,0.09,-272.75,-272.81,-7,525,-945,21.4,10.4,-11.0,21.6,10.5,-10.7,5.73,2.11,-5.7,28.1
2015-10-06 01:35:00,0.0,1.94159,0.00102,396.737,0.026,0.3517,0.0019,140.001,45.000,31806.92590,1.94837,398.433,36.563,45.067,45.000,0.00,0.09,-272.74,-272.80,-8,525,-945,21.4,10.5,-10.9,21.6,10.5,-10.7,5.73,1.96,-5.7,28.0
2015-10-06 01:36:00,0.0,1.94313,0.00122,396.765,0.043,0.3537,0.0017,139.997,45.000,31806.44666,1.95004,398.469,36.574,45.067,45.000,0.00,0.09,-272.74,-272.80,-9,525,-945,21.3,10.5,-10.9,21.7,10.6,-10.6,5.73,1.76,-5.7,28.0
2015-10-06 01:37:00,0.0,1.94138,0.00057,396.723,0.043,0.3540,0.0015,140.001,45.000,31807.16474,1.94816,398.428,36.596,45.067,45.000,0.00,0.09,-272.76,-272.80,-8,526,-945,21.3,10.5,-10.9,21.6,10.6,-10.6,5.73,2.07,-5.7,28.0
2015-10-06 01:38:00,0.0,1.94298,0.00080,396.741,0.034,0.3539,0.0016,140.001,45.000,31808.71062,1.94977,398.446,36.582,45.067,44.999,0.00,0.09,-272.75,-272.81,-7,525,-945,21.4,10.5,-10.8,21.6,10.6,-10.6,5.73,2.02,-5.7,28.0
2015-10-06 01:39:00,0.0,1.94377,0.00090,396.789,0.034,0.3554,0.0019,140.000,45.000,31807.47720,1.95066,398.502,36.584,45.067,45.000,0.00,0.09,-272.74,-272.80,-8,525,-945,21.4,10.6,-10.8,21.7,10.6,-10.5,5.73,1.76,-5.7,28.1
2015-10-06 01:40:00,0.0,1.94256,0.00139,396.745,0.028,0.3545,0.0014,139.999,45.000,31806.85687,1.94948,398.453,36.606,45.068,45.000,0.00,0.09,-272.75,-272.80,-9,525,-945,21.4,10.5,-10.8,21.7,10.6,-10.5,5.73,2.02,-5.7,28.0
2015-10-06 01:41:00,0.0,1.93936,0.00067,396.675,0.029,0.3534,0.0020,140.000,45.000,31808.71821,1.94619,398.379,36.604,45.068,45.000,0.00,0.09,-272.75,-272.80,-8,525,-945,21.4,10.5,-10.9,21.7,10.6,-10.6,5.73,2.06,-5.7,28.0
2015-10-06 01:42:00,0.0,1.94164,0.00092,396.735,0.033,0.3522,0.0019,139.999,45.000,31807.25086,1.94837,398.431,36.595,45.068,45.000,0.00,0.09,-272.74,-272.80,-7,525,-945,21.4,10.5,-10.9,21.7,10.5,-10.6,5.73,1.76,-5.7,28.0
2015-10-06 01:43:00,0.0,1.94015,0.00064,396.701,0.032,0.3533,0.0018,139.999,45.000,31809.37996,1.94698,398.403,36.583,45.068,45.000,0.00,0.09,-272.74,-272.79,-8,525,-945,21.4,10.5,-10.9,21.7,10.5,-10.6,5.73,1.99,-5.7,28.0
2015-10-06 01:44:00,0.0,1.94046,0.00075,396.707,0.047,0.3538,0.0014,139.999,45.000,31809.02701,1.94732,398.413,36.564,45.068,45.000,0.00,0.09,-272.75,-272.80,-9,525,-945,21.4,10.5,-10.9,21.7,10.5,-10.6,5.73,2.09,-5.7,28.1